• En España
  • Lista de países
  • Para 7 días
  • Temperatura del agua
  • Mapa Satelital
  • El tiempo en el mapa
  • Informadores
  • user-avatar
    Iniciar sesión

    Tiempo cada hora Kilkenny

    Hoy, 19 Septiembre, Miércoles

    Tiempo Temperatura Precipitaciones Viento Presión Humedad
    00:00 +10°C° 0 mm 5 mps 747 mmHg 92%
    01:00 +12°C° 0.1 mm 5 mps 747 mmHg 92%
    02:00 +11°C° 0.1 mm 6 mps 746 mmHg 93%
    03:00 +11°C° 0.1 mm 6 mps 746 mmHg 93%
    04:00 +12°C° 0.3 mm 8 mps 745 mmHg 92%
    05:00 +12°C° 0.3 mm 10 mps 744 mmHg 90%
    06:00 +13°C° 0 mm 10 mps 741 mmHg 90%
    07:00 +13°C° 0.4 mm 11 mps 742 mmHg 88%
    08:00 +13°C° 0.4 mm 12 mps 742 mmHg 86%
    09:00 +13°C° 0.4 mm 13 mps 743 mmHg 85%
    10:00 +13°C° 0 mm 12 mps 744 mmHg 78%
    11:00 +13°C° 0 mm 12 mps 745 mmHg 71%
    12:00 +13°C° 0 mm 11 mps 747 mmHg 64%
    13:00 +13°C° 0 mm 10 mps 748 mmHg 65%
    14:00 +12°C° 0 mm 9 mps 749 mmHg 66%
    15:00 +12°C° 0 mm 8 mps 749 mmHg 67%
    16:00 +11°C° 0 mm 7 mps 750 mmHg 70%
    17:00 +11°C° 0 mm 6 mps 750 mmHg 74%
    18:00 +10°C° 0 mm 5 mps 751 mmHg 77%
    19:00 +9°C° 0 mm 5 mps 751 mmHg 76%
    20:00 +9°C° 0 mm 5 mps 751 mmHg 75%
    21:00 +9°C° 0 mm 5 mps 751 mmHg 74%
    22:00 +9°C° 0.1 mm 5 mps 751 mmHg 76%
    23:00 +10°C° 0.1 mm 4 mps 751 mmHg 78%

    Mañana, 20 Septiembre, Jueves

    Tiempo Temperatura Precipitaciones Viento Presión Humedad
    00:00 +8°C° 0.1 mm 4 mps 751 mmHg 80%
    01:00 +8°C° 0.2 mm 4 mps 751 mmHg 84%
    02:00 +9°C° 0.2 mm 3 mps 751 mmHg 87%
    03:00 +8°C° 0.2 mm 3 mps 751 mmHg 91%
    04:00 +8°C° 0.1 mm 3 mps 751 mmHg 92%
    05:00 +8°C° 0.1 mm 2 mps 750 mmHg 93%
    06:00 +8°C° 0.1 mm 2 mps 750 mmHg 93%
    07:00 +9°C° 0.1 mm 2 mps 750 mmHg 92%
    08:00 +10°C° 0.1 mm 1 mps 749 mmHg 90%
    09:00 +11°C° 0.1 mm 1 mps 749 mmHg 89%
    10:00 +9°C° 2.3 mm 2 mps 748 mmHg 91%
    11:00 +9°C° 2.3 mm 3 mps 747 mmHg 93%
    12:00 +8°C° 2.3 mm 3 mps 746 mmHg 95%
    13:00 +7°C° 2.7 mm 4 mps 745 mmHg 96%
    14:00 +7°C° 2.7 mm 4 mps 744 mmHg 96%
    15:00 +7°C° 2.7 mm 4 mps 743 mmHg 97%
    16:00 +7°C° 0.7 mm 4 mps 743 mmHg 96%
    17:00 +7°C° 0.7 mm 5 mps 742 mmHg 96%
    18:00 +7°C° 0.7 mm 5 mps 742 mmHg 95%
    19:00 +7°C° 0.2 mm 5 mps 743 mmHg 95%
    20:00 +7°C° 0.2 mm 6 mps 743 mmHg 95%
    21:00 +5°C° 0.2 mm 6 mps 744 mmHg 95%
    22:00 +5°C° 0 mm 6 mps 745 mmHg 94%
    23:00 +5°C° 0 mm 6 mps 746 mmHg 94%

    Pasado mañana, 21 Septiembre, Viernes

    Tiempo Temperatura Precipitaciones Viento Presión Humedad
    00:00 +4°C° 0 mm 6 mps 746 mmHg 93%
    01:00 +4°C° 0 mm 6 mps 747 mmHg 92%
    02:00 +4°C° 0 mm 6 mps 747 mmHg 91%
    03:00 +4°C° 0 mm 6 mps 747 mmHg 91%
    04:00 +4°C° 0 mm 7 mps 748 mmHg 90%
    05:00 +5°C° 0 mm 7 mps 748 mmHg 90%
    06:00 +5°C° 0 mm 8 mps 749 mmHg 89%
    07:00 +6°C° 0 mm 8 mps 750 mmHg 87%
    08:00 +7°C° 0 mm 8 mps 750 mmHg 85%
    09:00 +9°C° 0 mm 8 mps 751 mmHg 83%
    10:00 +10°C° 0.1 mm 8 mps 752 mmHg 81%
    11:00 +11°C° 0.1 mm 8 mps 753 mmHg 78%
    12:00 +11°C° 0.1 mm 8 mps 753 mmHg 76%
    13:00 +11°C° 0.2 mm 8 mps 754 mmHg 76%
    14:00 +11°C° 0.2 mm 7 mps 754 mmHg 76%
    15:00 +11°C° 0.2 mm 7 mps 754 mmHg 77%
    16:00 +10°C° 0.1 mm 6 mps 755 mmHg 80%
    17:00 +10°C° 0.1 mm 5 mps 755 mmHg 84%
    18:00 +10°C° 0.1 mm 4 mps 756 mmHg 87%
    19:00 +8°C° 0 mm 4 mps 757 mmHg 90%
    20:00 +8°C° 0 mm 3 mps 757 mmHg 92%
    21:00 +7°C° 0 mm 3 mps 758 mmHg 94%
    22:00 +5°C° 0 mm 3 mps 758 mmHg 95%
    23:00 +5°C° 0 mm 3 mps 758 mmHg 95%

    22 Septiembre, Sábado

    Tiempo Temperatura Precipitaciones Viento Presión Humedad
    00:00 +5°C° 0 mm 3 mps 759 mmHg 95%
    01:00 +5°C° 0 mm 3 mps 759 mmHg 95%
    02:00 +6°C° 0 mm 2 mps 759 mmHg 95%
    03:00 +6°C° 0 mm 2 mps 759 mmHg 95%
    04:00 +6°C° 0 mm 2 mps 759 mmHg 95%
    05:00 +6°C° 0 mm 2 mps 759 mmHg 95%
    06:00 +7°C° 0 mm 1 mps 759 mmHg 95%
    07:00 +8°C° 0 mm 1 mps 759 mmHg 92%
    08:00 +9°C° 0 mm 1 mps 759 mmHg 90%
    09:00 +10°C° 0 mm 1 mps 760 mmHg 87%
    10:00 +11°C° 0 mm 1 mps 760 mmHg 83%
    11:00 +12°C° 0 mm 1 mps 760 mmHg 80%
    12:00 +13°C° 0 mm 1 mps 760 mmHg 76%
    13:00 +13°C° 0 mm 1 mps 759 mmHg 77%
    14:00 +13°C° 0 mm 1 mps 759 mmHg 77%
    15:00 +13°C° 0 mm 1 mps 759 mmHg 78%
    16:00 +12°C° 0.1 mm 1 mps 758 mmHg 82%
    17:00 +10°C° 0.1 mm 2 mps 757 mmHg 86%
    18:00 +9°C° 0.1 mm 2 mps 757 mmHg 90%
    19:00 +9°C° 1.5 mm 3 mps 756 mmHg 92%
    20:00 +8°C° 1.5 mm 4 mps 756 mmHg 94%
    21:00 +7°C° 1.5 mm 4 mps 755 mmHg 96%
    22:00 +7°C° 1.4 mm 5 mps 754 mmHg 96%
    23:00 +7°C° 1.4 mm 6 mps 752 mmHg 95%

    23 Septiembre, Domingo

    Tiempo Temperatura Precipitaciones Viento Presión Humedad
    00:00 +6°C° 1.4 mm 7 mps 751 mmHg 95%
    01:00 +6°C° 4.7 mm 8 mps 749 mmHg 95%
    02:00 +6°C° 4.7 mm 9 mps 748 mmHg 95%
    03:00 +5°C° 4.7 mm 9 mps 746 mmHg 95%
    04:00 +5°C° 3.5 mm 10 mps 745 mmHg 95%
    05:00 +4°C° 3.5 mm 11 mps 745 mmHg 94%
    06:00 +4°C° 3.5 mm 12 mps 744 mmHg 93%
    07:00 +4°C° 2.3 mm 12 mps 745 mmHg 92%
    08:00 +4°C° 2.3 mm 12 mps 746 mmHg 92%
    09:00 +3°C° 2.3 mm 12 mps 748 mmHg 91%
    10:00 +4°C° 0.1 mm 12 mps 750 mmHg 86%
    11:00 +5°C° 0.1 mm 12 mps 752 mmHg 82%
    12:00 +7°C° 0.1 mm 11 mps 755 mmHg 77%
    13:00 +8°C° 0 mm 10 mps 756 mmHg 73%
    14:00 +10°C° 0 mm 9 mps 758 mmHg 70%
    15:00 +11°C° 0 mm 8 mps 759 mmHg 66%
    16:00 +10°C° 0 mm 7 mps 761 mmHg 70%
    17:00 +9°C° 0 mm 6 mps 762 mmHg 74%
    18:00 +8°C° 0 mm 4 mps 763 mmHg 78%
    19:00 +7°C° 0 mm 4 mps 764 mmHg 81%
    20:00 +6°C° 0 mm 4 mps 765 mmHg 83%
    21:00 +5°C° 0 mm 4 mps 767 mmHg 86%
    22:00 +4°C° 0 mm 3 mps 767 mmHg 88%
    23:00 +4°C° 0 mm 3 mps 768 mmHg 91%

    24 Septiembre, Lunes

    Tiempo Temperatura Precipitaciones Viento Presión Humedad
    00:00 +3°C° 0 mm 3 mps 769 mmHg 93%
    01:00 +3°C° 0 mm 3 mps 769 mmHg 94%
    02:00 +3°C° 0 mm 3 mps 770 mmHg 94%
    03:00 +3°C° 0 mm 2 mps 770 mmHg 94%
    04:00 +3°C° 0 mm 2 mps 771 mmHg 93%
    05:00 +3°C° 0 mm 2 mps 771 mmHg 93%
    06:00 +3°C° 0 mm 2 mps 771 mmHg 93%
    07:00 +5°C° 0 mm 2 mps 772 mmHg 89%
    08:00 +7°C° 0 mm 2 mps 772 mmHg 85%
    09:00 +8°C° 0 mm 2 mps 773 mmHg 82%
    10:00 +10°C° 0 mm 3 mps 773 mmHg 77%
    11:00 +11°C° 0 mm 3 mps 773 mmHg 73%
    12:00 +12°C° 0 mm 3 mps 773 mmHg 68%
    13:00 +13°C° 0 mm 3 mps 773 mmHg 68%
    14:00 +13°C° 0 mm 3 mps 773 mmHg 68%
    15:00 +13°C° 0 mm 3 mps 773 mmHg 68%
    16:00 +13°C° 0 mm 2 mps 773 mmHg 73%
    17:00 +12°C° 0 mm 2 mps 772 mmHg 78%
    18:00 +10°C° 0 mm 2 mps 772 mmHg 83%
    19:00 +9°C° 0 mm 2 mps 772 mmHg 85%
    20:00 +8°C° 0 mm 1 mps 773 mmHg 87%
    21:00 +7°C° 0 mm 1 mps 773 mmHg 90%
    22:00 +7°C° 0 mm 1 mps 773 mmHg 90%
    23:00 +6°C° 0 mm 1 mps 773 mmHg 91%
    Mostrar más